STARLINK-36781

Last updated on Wed Mar 25 2026 00:02:05 GMT+0000 (Coordinated Universal Time)

1 67931U 26036AD 26083.50002314 -.02382203 00000+0 -75757-1 0 9990 2 67931 42.9993 161.5116 0000863 266.6432 260.5786 15.35651253 6029
UTC large
Height (km)
Speed (km/s)
/
Latitude / Longitude
Inclination (degrees)
Orbital Period (minutes)
Azimuth
Elevation
Range (km)
Doppler Factor

Next 0 passes for location: London (51.5072 / 0.1276)

Sorry there are no passes over London.